Regional Weather Roundup
Issued by NWS

Home | Current Version | Previous Version | Graphics & Text | Print | Product List | Glossary Off
Versions: 1 2 3 4 5 6 7 8 9 10 11 12 13 14 15 16 17 18 19 20 21 22 23 24 25 26 27 28 29 30 31 32 33 34 35 36 37 38 39 40 41 42 43 44 45 46 47 48 49 50

000
ASUS43 KDMX 210601
RWRIA

WEATHER ROUNDUP FOR IOWA
NATIONAL WEATHER SERVICE DES MOINES IA
1200 AM CST SUN JAN 21 2018

NOTE: "FAIR" INDICATES FEW OR NO CLOUDS BELOW 12,000 FEET WITH NO
SIGNIFICANT WEATHER AND/OR OBSTRUCTIONS TO VISIBILITY.

* - THESE STATIONS ARE NOT NWS STATIONS...THUS NOT UNDER NWS
QUALITY CONTROL.  THEY ALSO DO NOT REPORT WEATHER SUCH
AS PRECIPITATION OR FOG.

IAZ001>003-012>014-020>022-031>034-043>046-210700-
   NORTHWEST IOWA

CITY           SKY/WX    TMP DP  RH WIND       PRES   REMARKS
CARROLL *      CLOUDY    34  32  93 CALM      29.89S
DENISON *      CLOUDY    34  32  93 NE6       29.89F WCI  29
LE MARS *      CLOUDY    28  27  93 NE5       29.91S WCI  23
ORANGE CITY *  CLOUDY    32  30  93 NE6       29.91S WCI  26
SHELDON *      CLOUDY    30  28  93 NE5       29.90S WCI  25
SIOUX CITY     CLOUDY    36  32  85 NE8       29.90R WCI  30
6HR MIN TEMP:  36; 6HR MAX TEMP:  44;

SPENCER        CLOUDY    29  27  92 E6        29.92F WCI  23
6HR MIN TEMP:  28; 6HR MAX TEMP:  36;

STORM LAKE *   CLOUDY    32  32 100 NE9       29.89F WCI  24
$$

IAZ055>058-069>071-079>083-090>094-210700-
   SOUTHWEST IOWA

CITY           SKY/WX    TMP DP  RH WIND       PRES   REMARKS
ATLANTIC *     CLOUDY    37  37 100 CALM      29.87S FOG
AUDUBON *      CLOUDY    36  32  87 CALM      29.88F
CLARINDA *     CLOUDY    39  39 100 N5          N/A  FOG
COUNCIL BLFS * CLOUDY    39  39 100 NE6       29.85F WCI  35
CRESTON *      CLOUDY    41  39  93 E6        29.88S
HARLAN  *      CLOUDY    36  36 100 N5        29.90F WCI  32
LAMONI         CLOUDY    43  40  89 NE3       29.87S
6HR MIN TEMP:  43; 6HR MAX TEMP:  46;

RED OAK *      CLOUDY    39  39 100 NE6       29.85F WCI  35
SHENANDOAH *   CLOUDY    39  39 100 NE6       29.86S FOG     WCI  35
$$

IAZ047>049-059>061-072>074-084-210700-
   CENTRAL IOWA

CITY           SKY/WX    TMP DP  RH WIND       PRES   REMARKS
AMES           CLOUDY    35  35 100 CALM      29.90F FOG
6HR MIN TEMP:  29; 6HR MAX TEMP:  39;

ANKENY *       CLOUDY    37  36  93 CALM      29.91R FOG
BOONE *        CLOUDY    36  36 100 CALM      29.89S FOG
CHARITON *     CLOUDY    41  39  93 SE3       29.88F
DES MOINES     CLOUDY    39  36  89 SE5       29.90R
6HR MIN TEMP:  37; 6HR MAX TEMP:  42;

GRINNELL*      CLOUDY    37  35  93 E7        29.91S FOG     WCI  31
KNOXVILLE *    CLOUDY    41  37  87 E5        29.88S
MARSHALLTOWN   CLOUDY    35  34  96 NE6       29.91F FOG     WCI  30
6HR MIN TEMP:  29; 6HR MAX TEMP:  39;

NEWTON *       CLOUDY    37  37 100 E7        29.90S WCI  32
PELLA *        CLOUDY    40  37  91 E3        29.91S
$$

IAZ004>006-015-016-023>025-035-036-210700-
   NORTH CENTRAL IOWA

CITY           SKY/WX    TMP DP  RH WIND       PRES   REMARKS
ALGONA *       CLOUDY    32 N/A N/A N7        29.91F WCI  26
CLARION *      CLOUDY    30  32 100 E6        29.91F WCI  24
ESTHERVILLE    CLOUDY    30  29  96 NE6       29.91F WCI  24
6HR MIN TEMP:  28; 6HR MAX TEMP:  34;

FORT DODGE *   CLOUDY    28  26  92 NE3       29.90F FOG
MASON CITY     CLOUDY    28  27  96 N6        29.93S FOG     WCI  22
6HR MIN TEMP:  28; 6HR MAX TEMP:  36;

FOREST CITY *    N/A     28  28 100 N5        29.91F FOG     WCI  23
IOWA FALLS *   MOCLDY    31  30  96 CALM      29.92F FOG
$$

IAZ007>011-017>019-026>030-037>042-050>054-066-210700-
   NORTHEAST IOWA

CITY           SKY/WX    TMP DP  RH WIND       PRES   REMARKS
CEDAR RAPIDS   CLOUDY    38  35  89 CALM      29.92R FOG
6HR MIN TEMP:  34; 6HR MAX TEMP:  38;

CHARLES CITY *   N/A     32  32 100 E5        29.93S WCI  27
CLINTON *      CLOUDY    36  34  92 E6        29.95S FOG     WCI  31
DECORAH *        N/A     34  32  93 CALM      29.93R
DUBUQUE        CLOUDY    34  33  96 S3        29.94S FOG
6HR MIN TEMP:  30; 6HR MAX TEMP:  36;

MONTICELLO *   CLOUDY    32  32 100 NE3       29.94S FOG
OELWEIN *      FOG       30  30 100 S3        29.94R VSB<1/4
WATERLOO       FOG       26  25  96 CALM      29.93S VSB 1/4
6HR MIN TEMP:  26; 6HR MAX TEMP:  35;

$$

IAZ064-065-067-068-078-210700-
   EAST CENTRAL IOWA

CITY           SKY/WX    TMP DP  RH WIND       PRES   REMARKS
DAVENPORT      CLOUDY    39  35  86 E5        29.95S FOG
6HR MIN TEMP:  34; 6HR MAX TEMP:  41;

IOWA CITY      CLOUDY    39  35  86 CALM      29.95R
6HR MIN TEMP:  37; 6HR MAX TEMP:  41;

MT. PLEASANT * CLOUDY    41  37  87 SE5       29.93S
MUSCATINE *    CLOUDY    37  36  93 CALM      29.94S
QUAD CITIES    CLOUDY    40  37  89 CALM      29.93S
6HR MIN TEMP:  40; 6HR MAX TEMP:  43;

$$

IAZ062-063-075>077-085>089-095>099-210700-
   SOUTHEAST IOWA

CITY           SKY/WX    TMP DP  RH WIND       PRES   REMARKS
BURLINGTON     CLOUDY    43  38  82 CALM      29.93R
6HR MIN TEMP:  42; 6HR MAX TEMP:  45;

FAIRFIELD *    CLOUDY    41  37  87 SE7       29.91F
FORT MADISON * CLOUDY    45  39  81 S3        29.94R
KEOKUK *       CLOUDY    43  39  87 MISG      29.91F
OTTUMWA        CLOUDY    41  37  86 E3        29.90S
6HR MIN TEMP:  40; 6HR MAX TEMP:  44;

WASHINGTON *   CLOUDY    39  39 100 E5        29.93S FOG
$$

ABBREVIATIONS USED IN REMARKS
   TC - TEMPERATURES IN CELSIUS
  WCI - WIND CHILL INDEX
   HX - HEAT INDEX
  VSB - VISIBILITY
$$





USA.gov is the U.S. government's official web portal to all federal, state and local government web resources and services.